sat.trackr.live / text

‹ back to catalog

STARLINK-3180

NORAD 51137 · 2022-005AK

PAYLOAD ACTIVE UNKNOWN

§ Identity

Operator
Country
US
Launch date
2022-01-19
Launch site
AFETR
Launch vehicle
Mass (kg)
RCS (m²)

Purposes: comms

External: N2YO · Heavens-Above · Gunter

§ Orbital elements

Epoch: 2026-05-24T21:25:21.224928Z

Period
95.44 min
Inclination
53.2136°
Eccentricity
0.0001744
Mean motion
15.08827164 rev/d
Perigee alt
538.6 km
Apogee alt
541.0 km
Semi-major
6,917.9 km
B*
1.1862e-4
RAAN
317.0309°
Arg perigee
77.6533°
Mean anomaly
282.4655°
Rev number
24,024

§ Raw data

STARLINK-31801 51137U 22005AK  26144.89260677  .00001600  00000+0  11862-3 0  99952 51137  53.2136 317.0309 0001744  77.6533 282.4655 15.08827164240245

JSON: /api/v1/satellites/51137 · /tle

For live sub-satellite position, see the globe view (requires WebGL).

§ Visibility from observer

Set your observer location to see the next 7 days of passes ≥ 10°. The values pass through the URL so the page stays shareable.

No JS? Fill the form by hand. The geolocation button needs JavaScript.